Location: La Marchesa
(44.8000°N, 11.1167°E)
Time: 02:14:06
(UTC+00:00)

Daily predictions for brighter satellites

Satellite Brightness Start Highest point End
(mag) Time Altitude Azimuth Time Altitude Azimuth Time Altitude Azimuth
CZ-2D R/B 4.3 00:50:43 10° NNE 00:52:32 22° NNE 00:52:32 22° NNE
Resurs 1-4 Rocket 4.2 01:09:07 10° NNE 01:10:55 22° N 01:10:55 22° N
ATLAS 5 CENTAUR R/B 4.3 01:39:05 14° NNE 01:39:05 14° NNE 01:39:48 10° NNE
SL-16 R/B 4.2 01:52:16 21° NNW 01:52:16 21° NNW 01:54:15 10° NNW
Cosmos 1821 Rocket 4.2 01:54:43 67° ENE 01:54:43 67° ENE 02:00:36 10° NNE
IDEFIX/ARIANE 42P 3.9 01:50:07 10° N 01:52:59 33° N 01:52:59 33° N
BREEZE-M R/B 4.1 02:07:45 65° SE 02:07:45 65° SE 02:17:10 10° ENE
BREEZE-M DEB (TANK) 3.7 02:09:02 49° ESE 02:09:02 49° ESE 02:16:03 10° ESE
ADEOS II 3.4 02:08:46 10° N 02:11:38 29° NNW 02:11:38 29° NNW
SL-16 R/B 4.3 02:15:39 15° NNW 02:15:39 15° NNW 02:18:05 10° N
Cosmos 2221 4.4 02:20:18 23° N 02:20:18 23° N 02:22:00 10° N
USA 234 4.4 02:14:29 10° ENE 02:20:17 33° SE 02:22:41 26° SSE
Cosmos 1812 4.4 02:28:38 29° NNE 02:28:38 29° NNE 02:30:38 10° NNE
Tiangong 1.1 02:30:03 11° ESE 02:30:03 11° ESE 02:30:16 10° ESE
Cosmos 1727 Rocket 4.5 02:21:38 10° NNW 02:26:23 46° NW 02:26:23 46° NW
ALOS 2.6 02:25:33 10° NNE 02:30:11 59° E 02:30:23 59° ESE
CZ-2D R/B 4.1 02:31:56 10° NNW 02:33:50 16° NW 02:33:50 16° NW
Sich 1 4.4 02:32:21 10° N 02:36:22 36° ENE 02:40:19 10° SE
Meteor 1-26 Rocket 4.3 02:35:39 50° S 02:37:11 77° E 02:42:48 10° NNE
IRS-1D 3.7 02:32:25 10° N 02:37:16 60° NW 02:37:16 60° NW
Cosmos 1340 4.5 02:41:29 24° N 02:41:29 24° N 02:43:05 10° N
Cosmos 1932 4.4 02:41:05 60° SW 02:42:21 86° WNW 02:48:49 10° NE
CBERS-1 3.9 02:37:26 10° NNE 02:42:35 88° ESE 02:43:15 69° S
CZ-2C R/B 2.7 02:37:46 10° NNE 02:42:50 64° ESE 02:44:27 41° SSE
BREEZE-M DEB (TANK) 3.5 02:49:04 30° NE 02:49:04 30° NE 02:51:59 10° E
Resurs 1-4 Rocket 4.3 02:51:11 10° NNW 02:51:59 12° NW 02:51:59 12° NW
SL-19 R/B 4.4 02:48:18 10° NNE 02:54:38 87° WNW 02:57:36 33° SSW
Cosmos 2084 3.9 02:59:29 23° NNW 03:01:51 58° NE 03:06:01 10° SE
X-37B 3.1 03:03:55 14° SE 03:03:55 14° SE 03:05:03 10° ESE
PAYLOAD A 3.7 03:04:33 10° N 03:09:18 77° WNW 03:11:08 38° SSW
Cosmos 407 Rocket 4.1 03:04:21 10° NNW 03:09:35 58° ENE 03:14:50 10° SE
Orbus 7S? 4.3 03:11:34 26° SSE 03:12:25 31° ESE 03:16:15 10° ENE
Meteor 2-6 Rocket 4.3 03:09:08 10° S 03:14:29 75° E 03:19:56 10° NNE
Cosmos 1833 Rocket 3.7 03:09:41 10° S 03:14:59 44° ESE 03:20:19 10° NE
ATLAS CENTAUR R/B 4.4 03:14:34 10° SE 03:17:23 16° ESE 03:20:14 10° ENE
Cosmos 1805 Rocket 3.5 03:17:41 10° NNW 03:22:03 58° W 03:26:05 11° S
CZ-2D R/B 3.6 03:18:49 10° NNE 03:22:45 66° ESE 03:26:28 11° S
Cosmos 1782 4.5 03:25:36 20° NW 03:25:36 20° NW 03:27:34 10° NNW
ARIANE 5 R/B 2.4 03:21:36 10° NNE 03:26:42 86° WNW 03:31:28 11° SSW
BREEZE-M DEB (TANK) 3.2 03:24:40 22° WNW 03:28:27 77° N 03:31:10 10° E
CZ-2C R/B 4.3 03:24:12 10° NNE 03:29:49 48° E 03:35:16 10° S
FENGYUN 3A 4.3 03:25:20 10° N 03:30:11 36° WNW 03:31:51 29° WSW
Cosmos 44 4.4 03:29:48 23° WNW 03:30:29 23° NW 03:34:01 10° NNE
Meteor 1-10 Rocket 4.4 03:26:32 10° S 03:32:01 71° E 03:37:35 10° NNE
Cosmos 1633 Rocket 3.6 03:28:44 10° N 03:33:03 59° E 03:37:19 10° SSE
Meteor 1-29 3.8 03:29:54 10° NNE 03:33:06 48° E 03:36:18 10° S
Cosmos 1346 Rocket 3.8 03:29:52 10° S 03:33:43 48° E 03:37:34 10° NNE
USA 305 4.2 03:31:22 16° SSW 03:34:07 34° SE 03:37:53 10° ENE
IRS-1C 4.1 03:30:08 10° N 03:35:25 64° WNW 03:40:06 13° SSW
Cosmos 1697 Rocket 3.3 03:31:41 10° NNW 03:37:17 59° ENE 03:42:50 10° SE
NOSS 8 (A) 4.3 03:38:56 38° WSW 03:40:00 62° NW 03:42:58 10° NNE
Cosmos 1666 Rocket 3.6 03:36:27 10° N 03:40:56 88° E 03:45:24 10° S
ERBS 2.6 03:40:19 27° SSW 03:41:31 47° SE 03:44:20 10° ENE
Cosmos 1743 Rocket 4.4 03:38:27 10° NNW 03:42:10 27° W 03:42:21 27° W
Cosmos 1447 Rocket 4.4 03:37:17 10° N 03:43:39 78° W 03:49:54 10° S
Aureole 3 3.6 03:42:12 12° SSW 03:46:23 50° W 03:50:03 10° N
Cosmos 1624 Rocket 4.4 03:42:29 10° S 03:47:41 65° ESE 03:52:58 10° NNE
Meteor 1-4 Rocket 3.7 03:44:45 10° N 03:48:14 46° ENE 03:51:44 10° SSE
Cosmos 1023 Rocket 4.5 03:43:22 10° NNW 03:48:26 58° WSW 03:53:33 10° S
CZ-2C R/B 4.0 03:44:58 10° NNE 03:48:32 42° E 03:52:08 10° S
Helios 1B rocket 3.1 03:45:18 10° N 03:48:58 33° WNW 03:50:38 23° WSW
Cosmos 1328 Rocket 3.6 03:45:32 10° S 03:49:52 79° E 03:54:16 10° N
Atlas Centaur 2 4.2 03:45:54 12° SW 03:50:56 22° S 03:55:49 10° SE
CZ-4C R/B 3.6 03:49:20 10° SSE 03:53:21 76° ENE 03:57:34 10° N
Cosmos 2251 Rocket 3.9 03:48:40 10° NW 03:53:32 38° WSW 03:58:19 10° S
Cosmos 1743 2.9 03:50:27 10° N 03:54:14 72° E 03:58:00 10° SSE
Cosmos 2098 Rocket 1.8 03:51:57 10° N 03:54:52 78° W 03:57:44 10° S
Cosmos 1441 Rocket 3.4 03:55:28 10° S 03:59:07 68° E 04:02:49 10° NNE
CZ-2C R/B 2.8 03:54:47 10° S 03:59:43 44° W 04:04:45 10° NNW
Cosmos 1371 Rocket 4.0 03:54:28 10° SSW 03:59:47 88° ESE 04:05:05 10° NNE
YAOGAN 6 2.7 03:57:10 10° N 04:00:43 53° WNW 04:04:16 10° SSW
Envisat 2.9 03:58:26 10° N 04:03:31 71° WNW 04:08:32 10° SSW
USA 234 3.3 03:57:07 10° NE 04:03:40 78° NW 04:10:02 11° WSW
Tiangong -1.3 04:02:10 21° WSW 04:03:44 36° S 04:06:39 10° ESE
Cosmos 1515 Rocket 4.2 04:01:05 10° S 04:05:24 59° E 04:09:48 10° NNE
PSLV R/B 3.8 04:01:31 10° NNE 04:05:53 75° ESE 04:10:11 10° S
USA 307 3.6 04:02:59 10° SSW 04:06:59 50° SE 04:11:02 10° ENE
ALOS 3.8 04:04:04 10° NNW 04:07:05 17° WNW 04:08:51 14° W
Cosmos 1605 Rocket 4.4 04:02:32 10° SW 04:08:10 38° WNW 04:13:50 10° N
BREEZE M DEB (TANK) 4.1 03:52:34 10° SW 04:08:27 69° SSE 04:12:36 10° ENE
Cosmos 2369 4.4 04:03:34 10° NNW 04:09:11 57° ENE 04:14:44 10° SE
Meteor 1-11 Rocket 3.8 04:04:50 10° NNW 04:10:46 69° W 04:16:41 10° S
SL-08 R/B 3.6 04:06:49 10° S 04:11:11 42° W 04:15:38 10° NNW
Cosmos 1470 Rocket 3.5 04:07:22 10° N 04:11:43 89° WSW 04:16:03 10° S
Sich 1 4.3 04:10:35 10° NW 04:13:43 20° W 04:16:49 10° SW
Cosmos 1151 Rocket 3.7 04:11:00 10° SW 04:14:50 33° WNW 04:18:42 10° N
Cosmos 1980 Rocket 2.9 04:09:19 10° NNW 04:14:52 59° ENE 04:20:22 10° SE
CZ-2C R/B 3.9 04:17:03 10° NNW 04:20:29 18° WNW 04:23:48 10° WSW
USA 306 2.9 04:18:44 10° SW 04:22:51 79° SE 04:27:00 10° ENE
Cosmos 1459 Rocket 4.0 04:17:27 10° S 04:23:46 80° W 04:30:12 10° N
Cosmos 1140 Rocket 4.3 04:19:49 10° NW 04:24:15 29° W 04:28:41 10° SSW
Cosmos 1656 4.5 04:19:49 10° NW 04:24:40 29° WSW 04:29:29 10° SSW
H-2A R/B 2.9 04:24:58 10° N 04:28:28 45° WNW 04:31:58 10° SSW
Cosmos 1378 3.8 04:26:14 10° S 04:29:47 57° E 04:33:22 10° NNE
Cosmos 1725 Rocket 4.4 04:23:42 10° S 04:29:57 72° E 04:36:16 10° NNE
Cosmos 2056 Rocket 3.6 04:25:36 10° SW 04:30:37 55° WNW 04:35:40 10° NNE
Cosmos 1484 Rocket 4.1 04:28:05 10° NNW 04:31:10 22° WNW 04:34:15 10° WSW
COSMO-SKYMED 1 2.5 04:30:31 10° S 04:34:51 80° WSW 04:39:14 10° NNW
NOAA 11 4.2 04:29:26 10° N 04:34:55 70° WNW 04:40:21 10° SSW
Cosmos 1190 Rocket 4.4 04:31:32 10° NW 04:36:21 39° WSW 04:41:08 10° S
Meteor 1-31 Rocket 4.2 04:34:10 10° NNE 04:37:49 43° E 04:41:27 10° S
X-37B 0.7 04:35:38 10° WSW 04:38:28 57° SSE 04:41:18 10° E
Cosmos 1954 Rocket 4.1 04:33:52 10° NNW 04:38:58 56° WSW 04:44:06 10° S
